Weather History for KPSP - September, 2013

Change the Weather History Date:

Thursday, September 19, 2013

  Actual Average Record
Temperature  
Mean Temperature 89 °F 86 °F  
Max Temperature 104 °F 99 °F 114 °F (1962)
Min Temperature 73 °F 72 °F 50 °F (1944)
Degree Days  
Heating Degree Days 0 0  
Month to date heating degree days 0 0  
Since 1 July heating degree days 0 0  
Cooling Degree Days 24 21  
Month to date cooling degree days 511 442  
Year to date cooling degree days 4007 3526  
Growing Degree Days 38 (Base 50)    
Moisture  
Dew Point 42 °F    
Average Humidity 24    
Maximum Humidity 41    
Minimum Humidity 6    
Precipitation  
Precipitation 0.00 in 0.01 in 1.22 in (1952)
Month to date precipitation 0.03 0.30  
Year to date precipitation 2.05 3.83  
Since 1 July precipitation 1.08 0.89  
Snow  
Snow 0.00 in - - ()
Month to date snowfall 0.0  
Year to date snowfall 0.0  
Since 1 July snowfall 0.0  
Snow Depth 0.00 in    
Sea Level Pressure  
Sea Level Pressure 29.69 in    
Wind  
Wind Speed 6 mph (NNW)    
Max Wind Speed 13 mph    
Max Gust Speed 15 mph    
Visibility 10 miles    
Events      
T = Trace of Precipitation, MM = Missing Value Source: NWS Daily Summary

Daily Weather History Graph

Daily Weather History Graph

Search for Another Location

Airport or City:

Trip Planner

Search our weather history database for the weather conditions in past years. The results will help you decide how hot, cold, wet, or windy it might be!

Date:

Astronomy

Sep. 19, 2013 Rise Set
Actual Time 6:32 AM PDT 6:46 PM PDT
Civil Twilight 6:07 AM PDT 7:11 PM PDT
Nautical Twilight 5:38 AM PDT 7:40 PM PDT
Astronomical Twilight 5:08 AM PDT 8:09 PM PDT
Moon 6:51 PM PDT (9/19) 6:43 AM PDT (9/19)
Length of Visible Light 13h 04m
Length of Day
12h 14m
Full, 100% of the Moon is Illuminated
Sep 19
Full
Sep 26
Last Quarter
Oct 4
New
Oct 11
First Quarter
Oct 18
Full

Hourly Weather History & Observations

Time (PDT) Temp. Heat Index Dew Point Humidity Pressure Visibility Wind Dir Wind Speed Gust Speed Precip Events Conditions
12:53 AM 79.0 °F - 50.0 °F 36% 29.68 in 10.0 mi WNW 3.5 mph - N/A   Clear
1:53 AM 79.0 °F - 50.0 °F 36% 29.68 in 10.0 mi NW 8.1 mph - N/A   Clear
2:53 AM 77.0 °F - 50.0 °F 39% 29.67 in 10.0 mi Variable 6.9 mph - N/A   Clear
3:53 AM 77.0 °F - 48.9 °F 37% 29.68 in 10.0 mi NW 4.6 mph - N/A   Clear
4:53 AM 77.0 °F - 48.0 °F 36% 29.68 in 10.0 mi NNW 6.9 mph - N/A   Clear
5:53 AM 75.0 °F - 48.9 °F 40% 29.69 in 10.0 mi North 10.4 mph - N/A   Clear
6:53 AM 73.9 °F - 48.0 °F 40% 29.71 in 10.0 mi NNW 9.2 mph - N/A   Clear
7:53 AM 79.0 °F - 48.0 °F 34% 29.73 in 10.0 mi North 6.9 mph - N/A   Clear
8:53 AM 84.9 °F - 46.9 °F 27% 29.73 in 10.0 mi North 3.5 mph - N/A   Clear
9:53 AM 91.0 °F - 46.0 °F 21% 29.74 in 10.0 mi SW 3.5 mph - N/A   Clear
10:53 AM 97.0 °F - 26.1 °F 8% 29.73 in 10.0 mi Calm Calm - N/A   Clear
11:53 AM 99.0 °F - 27.0 °F 8% 29.72 in 10.0 mi Calm Calm - N/A   Clear
12:53 PM 100.9 °F - 25.0 °F 7% 29.71 in 10.0 mi SE 8.1 mph - N/A   Clear
1:53 PM 100.9 °F - 26.1 °F 7% 29.69 in 10.0 mi Variable 4.6 mph - N/A   Clear
2:53 PM 102.9 °F - 25.0 °F 6% 29.67 in 10.0 mi ESE 8.1 mph - N/A   Clear
3:53 PM 102.0 °F - 26.1 °F 7% 29.66 in 10.0 mi Variable 6.9 mph - N/A   Clear
4:53 PM 102.0 °F - 27.0 °F 7% 29.64 in 10.0 mi ESE 6.9 mph - N/A   Clear
5:53 PM 100.0 °F - 28.9 °F 8% 29.64 in 10.0 mi ESE 9.2 mph - N/A   Clear
6:53 PM 96.1 °F - 34.0 °F 11% 29.65 in 10.0 mi ESE 8.1 mph - N/A   Clear
7:53 PM 93.0 °F - 52.0 °F 25% 29.68 in 10.0 mi North 5.8 mph - N/A   Clear
8:53 PM 89.1 °F 86.9 °F 54.0 °F 30% 29.70 in 10.0 mi NW 8.1 mph - N/A   Clear
9:53 PM 86.0 °F 84.5 °F 55.0 °F 35% 29.71 in 10.0 mi NW 8.1 mph - N/A   Clear
10:53 PM 82.9 °F 82.1 °F 55.9 °F 39% 29.72 in 10.0 mi West 4.6 mph - N/A   Clear
11:53 PM 81.0 °F 81.0 °F 57.0 °F 44% 29.72 in 10.0 mi NW 9.2 mph - N/A   Clear